Regional Weather Roundup
Issued by NWS

Home | Current Version | Previous Version | Text Only | Print | Product List | Glossary Off
Versions: 1 2 3 4 5 6 7 8 9 10 11 12 13 14 15 16 17 18 19 20 21 22 23 24 25 26 27 28 29 30 31 32 33 34 35 36 37 38 39 40 41 42 43 44 45 46 47 48 49 50

000
ASUS45 KABQ 241010
RWRNM
WEATHER ROUNDUP FOR NEW MEXICO
NATIONAL WEATHER SERVICE ALBUQUERQUE NM
400 AM MDT THU APR 24 2014

NOTE: "FAIR" MEANS FEW OR NO CLOUDS BELOW 12,000 FEET AGL WITH NO
       SIGNIFICANT WEATHER OR OBSTRUCTIONS TO VISION.

      THIS PRODUCT IS RELEASED AS TWO VERSIONS.  ONE VERSION NEAR
      THE TOP OF THE HOUR CONTAINING PRELIMINARY DATA FROM ALBUQUERQUE
      AND OTHER STATIONS.  A FINAL VERSION WITH ADDITIONAL DATA IS
      ISSUED ABOUT 10 MINUTES AFTER THE HOUR.

NMZ501-503-504-510>518-241100-
NORTHWEST PLATEAU/NORTHCENTRAL MOUNTAINS

CITY           SKY/WX    TMP DP  RH WIND       PRES   REMARKS
FARMINGTON     CLEAR     36  10  34 W6        30.05R WCI  31
LOS ALAMOS     CLEAR     40   3  21 E3        30.06R
SANTA FE       CLEAR     37   9  31 N10       30.04R WCI  30
TAOS           CLEAR     30  14  51 NW10      30.07R WCI  21
ANGEL FIRE     FAIR      27  16  62 CALM      30.05R

$$
NMZ402-403-502-505>509-241100-
WESTCENTRAL MOUNTAINS/SOUTHWEST MOUNTAINS

CITY           SKY/WX    TMP DP  RH WIND       PRES   REMARKS
GALLUP         FAIR      28   6  39 E3        30.10R
GRANTS         FAIR      30   8  40 NW7       30.10S WCI  23
SILVER CITY    FAIR      39  10  30 N10       30.06S WCI  32

$$
NMZ407-409-411-412-241100-
SOUTHERN DESERTS

CITY           SKY/WX    TMP DP  RH WIND       PRES   REMARKS
LORDSBURG      FAIR      50  14  23 NW5       30.01R
DEMING         FAIR      50  13  22 W8        29.99R
LAS CRUCES     FAIR      57   8  14 NW6       29.99R
HOLLOMAN AFB   CLEAR     50  14  24 N7        29.94S
ALAMOGORDO     CLEAR     54  10  17 N9        29.95R
T OR C         FAIR      54  10  17 W15       30.00R

$$
NMZ519>523-241100-
CENTRAL VALLEYS/CENTRAL HIGHLANDS

CITY           SKY/WX    TMP DP  RH WIND       PRES   REMARKS
ALBUQUERQUE    CLEAR     49  12  22 NW6       30.05R
DOUBLE EAGLE   CLEAR     43  11  27 N7        30.06R
MORIARTY ARPT  FAIR      40  10  28 E7        30.04R
CLINES CORNERS CLEAR     41  10  28 W24       29.99R
BELEN          FAIR      40  11  31 N8        30.05R WCI  34
SOCORRO        FAIR      49  13  23 N8        30.02R

$$
NMZ524>526-539-540-241100-
SOUTHCENTRAL MOUNTAINS

CITY           SKY/WX    TMP DP  RH WIND       PRES   REMARKS
RUIDOSO        CLEAR     46   9  21 NE7       30.05R

$$
NMZ527>531-241100-
NORTHEAST HIGHLANDS/NORTHEAST PLAINS

CITY           SKY/WX    TMP DP  RH WIND       PRES   REMARKS
LAS VEGAS      CLEAR     37  12  35 N9        29.99R WCI  30
RATON          PTCLDY    40  32  73 N16       29.99R WCI  31
CLAYTON        CLOUDY    42  36  79 N21G29    29.95R

$$
NMZ532>537-241100-
EASTCENTRAL PLAINS

CITY           SKY/WX    TMP DP  RH WIND       PRES   REMARKS
TUCUMCARI      CLOUDY    53  34  48 N22       29.91R HAZE
CANNON AFB     CLEAR     51  17  26 NW9       29.88R
CLOVIS AIRPORT CLEAR     52  18  25 NW10      29.90R

$$
NMZ028-029-538-241100-
SOUTHEAST PLAINS

CITY           SKY/WX    TMP DP  RH WIND       PRES   REMARKS
ROSWELL        CLEAR     61  12  14 N14       29.89R
ARTESIA        CLEAR     54  18  24 W10       29.90R
CARLSBAD       CLEAR     54  29  38 SW5       29.87R
HOBBS          CLEAR     52  23  32 NW9       29.89R


$$



USA.gov is the U.S. government's official web portal to all federal, state and local government web resources and services.